2024/03/22 00:00:00,22.2,-2.0
2024/03/22 00:10:00,22.1,-1.9
2024/03/22 00:20:00,22.2,-1.9
2024/03/22 00:30:00,23.0,-1.9
2024/03/22 00:40:00,23.0,-2.2
2024/03/22 00:50:00,23.0,-2.1
2024/03/22 01:00:00,23.1,-1.9
2024/03/22 01:10:00,23.2,-2.3
2024/03/22 01:20:00,23.2,-2.2
2024/03/22 01:30:00,23.1,-2.3
2024/03/22 01:40:00,23.0,-2.5
2024/03/22 01:50:00,23.0,-2.6
2024/03/22 02:00:00,23.0,-2.7
2024/03/22 02:10:00,23.0,-2.8
2024/03/22 02:20:00,22.9,-2.7
2024/03/22 02:30:00,22.8,-3.1
2024/03/22 02:40:00,22.8,-3.2
2024/03/22 02:50:00,22.8,-3.1
2024/03/22 03:00:00,22.8,-3.4
2024/03/22 03:10:00,22.7,-4.1
2024/03/22 03:20:00,22.7,-4.4
2024/03/22 03:30:00,22.6,-4.2
2024/03/22 03:40:00,22.6,-3.8
2024/03/22 03:50:00,22.6,-4.0
2024/03/22 04:00:00,22.5,-3.9
2024/03/22 04:10:00,22.5,-3.4
2024/03/22 04:20:00,22.5,-3.2
2024/03/22 04:30:00,22.5,-3.0
2024/03/22 04:40:00,22.4,-2.9
2024/03/22 04:50:00,22.4,-2.9
2024/03/22 05:00:00,22.4,-2.7
2024/03/22 05:10:00,22.2,-2.9
2024/03/22 05:20:00,22.2,-2.7
2024/03/22 05:30:00,22.2,-2.4
2024/03/22 05:40:00,22.2,-2.7
2024/03/22 05:50:00,22.1,-2.9
2024/03/22 06:00:00,22.1,-3.0
2024/03/22 06:10:00,22.1,-3.2
2024/03/22 06:20:00,22.1,-2.9
2024/03/22 06:30:00,22.0,-2.7
2024/03/22 06:40:00,22.0,-1.8
2024/03/22 06:50:00,22.1,-2.8
2024/03/22 07:00:00,22.1,-2.9
2024/03/22 07:10:00,22.0,-2.9
2024/03/22 07:20:00,22.0,-2.8
2024/03/22 07:30:00,22.0,-2.9
2024/03/22 07:40:00,22.0,-2.9
2024/03/22 07:50:00,22.0,-2.9
2024/03/22 08:00:00,22.0,-2.8
2024/03/22 08:10:00,22.0,-2.0
2024/03/22 08:20:00,22.0,-1.6
2024/03/22 08:30:00,22.1,-1.1
2024/03/22 08:40:00,22.1,-0.5
2024/03/22 08:50:00,22.0, 1.9
2024/03/22 09:00:00,22.2, 3.6
2024/03/22 09:10:00,22.3, 5.0
2024/03/22 09:20:00,22.6, 6.1
2024/03/22 09:30:00,22.7, 6.3
2024/03/22 09:40:00,22.3, 6.8
2024/03/22 09:50:00,22.0, 7.5
2024/03/22 10:00:00,22.1, 8.2
2024/03/22 10:10:00,21.6, 8.3
2024/03/22 10:20:00,21.4, 8.6
2024/03/22 10:30:00,21.0, 8.8
2024/03/22 10:40:00,20.3, 8.6
2024/03/22 10:50:00,20.4, 9.6
2024/03/22 11:00:00,21.0,10.1
2024/03/22 11:10:00,20.3,10.4
2024/03/22 11:20:00,20.2,10.6
2024/03/22 11:30:00,19.6,10.7
2024/03/22 11:40:00,19.5,10.7
2024/03/22 11:50:00,19.0,12.0
2024/03/22 12:00:00,18.8,12.6
2024/03/22 12:10:00,18.6,12.5
2024/03/22 12:20:00,18.9,12.5
2024/03/22 12:30:00,18.8,13.5
2024/03/22 12:40:00,43.6,13.7
2024/03/22 12:50:00,43.3,14.2
2024/03/22 13:00:00,18.4,14.4
2024/03/22 13:10:00,51.5,15.2
2024/03/22 13:20:00,100.5,14.8
2024/03/22 13:30:00,99.9,14.9
2024/03/22 13:40:00,99.4,14.4
2024/03/22 13:50:00,---,15.1
2024/03/22 14:00:00,---,15.0
2024/03/22 14:10:00,98.2,15.0
2024/03/22 14:20:00,97.9,15.0
2024/03/22 14:30:00,48.7,14.5
2024/03/22 14:40:00,15.6,14.7
2024/03/22 14:50:00,15.0,13.0
2024/03/22 15:00:00,14.5,10.4
2024/03/22 15:10:00,14.1,10.4
2024/03/22 15:20:00,13.9,11.4
2024/03/22 15:30:00,13.7,14.2
2024/03/22 15:40:00,13.4,14.0
2024/03/22 15:50:00,13.2,12.6
2024/03/22 16:00:00,13.2,16.5
2024/03/22 16:10:00,13.0,16.5
2024/03/22 16:20:00,12.5,16.0
2024/03/22 16:30:00,12.4,15.9
2024/03/22 16:40:00,12.4,14.7
2024/03/22 16:50:00,12.4,14.7
2024/03/22 17:00:00,12.3,13.5
2024/03/22 17:10:00,12.2,11.8
2024/03/22 17:20:00,12.4,11.4
2024/03/22 17:30:00,12.1, 7.0
2024/03/22 17:40:00,12.0, 5.5
2024/03/22 17:50:00,12.0, 5.8
2024/03/22 18:00:00,11.9, 4.4
2024/03/22 18:10:00,11.9, 3.5
2024/03/22 18:20:00,11.9, 3.1
2024/03/22 18:30:00,11.9, 2.6
2024/03/22 18:40:00,12.0, 2.3
2024/03/22 18:50:00,12.0, 2.3
2024/03/22 19:00:00,11.9, 2.1
2024/03/22 19:10:00,11.8, 2.1
2024/03/22 19:20:00,11.8, 2.2
2024/03/22 19:30:00,11.8, 2.2
2024/03/22 19:40:00,11.8, 1.9
2024/03/22 19:50:00,11.8, 2.2
2024/03/22 20:00:00,11.8, 2.1
2024/03/22 20:10:00,11.7, 2.1
2024/03/22 20:20:00,11.8, 2.3
2024/03/22 20:30:00,11.7, 2.2
2024/03/22 20:40:00,11.8, 2.3
2024/03/22 20:50:00,11.7, 2.5
2024/03/22 21:00:00,11.7, 3.1
2024/03/22 21:10:00,11.6, 2.9
2024/03/22 21:20:00,11.6, 2.9
2024/03/22 21:30:00,11.5, 2.9
2024/03/22 21:40:00,11.6, 3.3
2024/03/22 21:50:00,11.6, 3.4
2024/03/22 22:00:00,11.6, 3.1
2024/03/22 22:10:00,11.5, 3.0
2024/03/22 22:20:00,11.5, 2.7
2024/03/22 22:30:00,11.5, 2.7
2024/03/22 22:40:00,11.5, 2.3
2024/03/22 22:50:00,11.5, 2.2
2024/03/22 23:00:00,11.5, 2.2
2024/03/22 23:10:00,11.5, 2.4
2024/03/22 23:20:00,11.5, 1.8
2024/03/22 23:30:00,11.5, 1.8
2024/03/22 23:40:00,11.5, 1.7
2024/03/22 23:50:00,11.5, 2.3
